DLH2LC EDDC-EDDH

Flight info

Callsign DLH2LC
Flight time 0h 44m
Altitude 28000
Route OSKAN9E OSKAN M748 RARUP RARUP6A
Aircraft A343/H-SDE2E3FGHIJ4J5M1RWXY/LB1D1

Departure

Time 2026-05-07 18:15
Airport Dresden Airport (EDDC)

Arrival

Time 2026-05-07 18:59
Airport Hamburg Helmut Schmidt Airport (EDDH)
Time Latitude Longitude Altitude Speed Heading
2026-05-07 17:49 51.12762 13.76726 751 ft 0 kts 40°
2026-05-07 17:59 51.12759 13.76723 756 ft 2 kts 40°
2026-05-07 17:59 51.12747 13.76707 751 ft 2 kts 39°
2026-05-07 17:59 51.12733 13.76692 751 ft 2 kts 42°
2026-05-07 18:00 51.12720 13.76677 757 ft 2 kts 21°
2026-05-07 18:00 51.12705 13.76666 752 ft 2 kts 27°
2026-05-07 18:00 51.12692 13.76658 755 ft 0 kts 20°
2026-05-07 18:00 51.12679 13.76654 752 ft 0 kts 317°
2026-05-07 18:04 51.12679 13.76653 752 ft 0 kts 317°
2026-05-07 18:04 51.12706 13.76608 752 ft 12 kts 312°
2026-05-07 18:05 51.12768 13.76496 752 ft 12 kts 311°
2026-05-07 18:05 51.12833 13.76462 750 ft 11 kts 19°
2026-05-07 18:05 51.12909 13.76554 748 ft 16 kts 40°
2026-05-07 18:05 51.12992 13.76668 747 ft 16 kts 41°
2026-05-07 18:06 51.13087 13.76799 743 ft 20 kts 41°
2026-05-07 18:06 51.13177 13.76922 742 ft 2 kts 41°
2026-05-07 18:06 51.13191 13.76941 739 ft 6 kts 40°
2026-05-07 18:06 51.13267 13.77046 739 ft 25 kts 41°
2026-05-07 18:07 51.13429 13.77269 734 ft 34 kts 40°
2026-05-07 18:07 51.13613 13.77521 730 ft 34 kts 41°
2026-05-07 18:07 51.13725 13.77676 726 ft 0 kts 41°
2026-05-07 18:09 51.13725 13.77677 722 ft 1 kts 41°
2026-05-07 18:09 51.13775 13.77745 726 ft 21 kts 40°
2026-05-07 18:10 51.13915 13.77941 718 ft 29 kts 41°
2026-05-07 18:10 51.14063 13.78145 719 ft 25 kts 40°
2026-05-07 18:10 51.14165 13.78281 718 ft 17 kts 40°
2026-05-07 18:10 51.14260 13.78341 714 ft 12 kts 340°
2026-05-07 18:11 51.14268 13.78334 718 ft 0 kts 329°
2026-05-07 18:12 51.14272 13.78330 718 ft 4 kts 326°
2026-05-07 18:13 51.14324 13.78246 718 ft 15 kts 311°
2026-05-07 18:13 51.14374 13.78140 719 ft 8 kts 295°
2026-05-07 18:13 51.14364 13.78085 721 ft 6 kts 237°
2026-05-07 18:13 51.14313 13.78008 723 ft 16 kts 220°
2026-05-07 18:14 51.14103 13.77723 724 ft 70 kts 220°
2026-05-07 18:14 51.13591 13.77017 736 ft 123 kts 221°
2026-05-07 18:14 51.12830 13.75964 782 ft 164 kts 223°
2026-05-07 18:14 51.11959 13.74768 1326 ft 166 kts 222°
2026-05-07 18:15 51.11069 13.73556 1940 ft 172 kts 221°
2026-05-07 18:15 51.10199 13.72011 2132 ft 203 kts 246°
2026-05-07 18:15 51.10130 13.69698 2506 ft 226 kts 291°
2026-05-07 18:15 51.10937 13.67457 3206 ft 240 kts 305°
2026-05-07 18:16 51.11891 13.65228 4168 ft 246 kts 307°
2026-05-07 18:16 51.13131 13.63308 5104 ft 254 kts 326°
2026-05-07 18:16 51.14805 13.62336 6022 ft 263 kts 353°
2026-05-07 18:16 51.16657 13.62444 6940 ft 270 kts
2026-05-07 18:17 51.18543 13.62833 7829 ft 276 kts
2026-05-07 18:17 51.20450 13.63030 8697 ft 281 kts 360°
2026-05-07 18:17 51.22423 13.63057 9585 ft 286 kts 359°
2026-05-07 18:17 51.24432 13.63043 10360 ft 294 kts 358°
2026-05-07 18:18 51.26543 13.63018 10755 ft 314 kts 358°
2026-05-07 18:18 51.28793 13.62986 11082 ft 333 kts 358°
2026-05-07 18:18 51.31180 13.62953 11441 ft 351 kts 358°
2026-05-07 18:18 51.33656 13.62920 12035 ft 360 kts 358°
2026-05-07 18:19 51.36181 13.62886 12747 ft 365 kts 358°
2026-05-07 18:19 51.38740 13.62852 13494 ft 370 kts 358°
2026-05-07 18:19 51.41333 13.62817 14216 ft 375 kts 358°
2026-05-07 18:19 51.43946 13.62544 14915 ft 378 kts 349°
2026-05-07 18:20 51.46465 13.61342 15619 ft 380 kts 334°
2026-05-07 18:20 51.48722 13.59129 16333 ft 382 kts 322°
2026-05-07 18:20 51.50813 13.56480 17043 ft 385 kts 319°
2026-05-07 18:20 51.52840 13.53621 17693 ft 390 kts 317°
2026-05-07 18:21 51.54846 13.50662 18381 ft 393 kts 316°
2026-05-07 18:21 51.56866 13.47665 18992 ft 397 kts 316°
2026-05-07 18:21 51.58917 13.44687 19633 ft 399 kts 317°
2026-05-07 18:21 51.61029 13.41762 20261 ft 402 kts 319°
2026-05-07 18:22 51.63182 13.38867 20915 ft 404 kts 320°
2026-05-07 18:22 51.64618 13.36956 21318 ft 405 kts 320°
2026-05-07 18:22 51.67538 13.33067 22132 ft 409 kts 321°
2026-05-07 18:22 51.69732 13.30129 22691 ft 412 kts 321°
2026-05-07 18:23 51.71943 13.27151 23099 ft 416 kts 320°
2026-05-07 18:23 51.74158 13.24151 23392 ft 417 kts 320°
2026-05-07 18:23 51.76381 13.21131 23676 ft 418 kts 320°
2026-05-07 18:23 51.78605 13.18099 24026 ft 418 kts 320°
2026-05-07 18:24 51.80832 13.15059 24511 ft 420 kts 321°
2026-05-07 18:24 51.83039 13.12043 24944 ft 423 kts 321°
2026-05-07 18:24 51.85294 13.08959 25370 ft 426 kts 321°
2026-05-07 18:24 51.87562 13.05853 25777 ft 429 kts 321°
2026-05-07 18:25 51.89845 13.02724 26184 ft 431 kts 321°
2026-05-07 18:25 51.92141 12.99571 26594 ft 434 kts 321°
2026-05-07 18:25 51.94450 12.96396 26987 ft 437 kts 321°
2026-05-07 18:25 51.96778 12.93192 27301 ft 440 kts 321°
2026-05-07 18:26 51.99108 12.89978 27576 ft 440 kts 321°
2026-05-07 18:26 52.01442 12.86754 27853 ft 441 kts 321°
2026-05-07 18:26 52.03786 12.83513 28054 ft 443 kts 321°
2026-05-07 18:27 52.08495 12.76988 28088 ft 446 kts 320°
2026-05-07 18:27 52.13214 12.70429 28088 ft 447 kts 320°
2026-05-07 18:28 52.17941 12.63838 28087 ft 447 kts 320°
2026-05-07 18:28 52.22659 12.57243 28086 ft 447 kts 320°
2026-05-07 18:29 52.27373 12.50634 28087 ft 446 kts 320°
2026-05-07 18:29 52.32069 12.44031 28083 ft 438 kts 319°
2026-05-07 18:29 52.34333 12.40839 28085 ft 422 kts 319°
2026-05-07 18:30 52.36491 12.37794 28085 ft 408 kts 319°
2026-05-07 18:30 52.40726 12.31807 28085 ft 401 kts 319°
2026-05-07 18:31 52.44945 12.25825 28090 ft 402 kts 319°
2026-05-07 18:31 52.48485 12.20795 28090 ft 401 kts 319°
2026-05-07 18:32 52.52703 12.14787 28092 ft 401 kts 319°
2026-05-07 18:32 52.56914 12.08772 28088 ft 401 kts 319°
2026-05-07 18:33 52.61107 12.02766 28089 ft 404 kts 318°
2026-05-07 18:33 52.65344 11.96683 28096 ft 404 kts 318°
2026-05-07 18:34 52.69585 11.90580 28089 ft 405 kts 317°
2026-05-07 18:34 52.73826 11.84458 28094 ft 405 kts 318°
2026-05-07 18:35 52.78064 11.78323 28096 ft 405 kts 317°
2026-05-07 18:35 52.82295 11.72183 28096 ft 405 kts 318°
2026-05-07 18:36 52.86523 11.66031 28094 ft 404 kts 318°
2026-05-07 18:36 52.90644 11.60020 27918 ft 384 kts 318°
2026-05-07 18:36 52.92626 11.57124 27769 ft 375 kts 318°
2026-05-07 18:37 52.94565 11.54286 27510 ft 370 kts 318°
2026-05-07 18:37 52.96496 11.51456 26982 ft 371 kts 318°
2026-05-07 18:37 52.98407 11.48651 26474 ft 372 kts 318°
2026-05-07 18:37 53.00328 11.45828 25964 ft 364 kts 318°
2026-05-07 18:38 53.02207 11.43064 25465 ft 359 kts 317°
2026-05-07 18:38 53.04102 11.40388 24973 ft 357 kts 323°
2026-05-07 18:38 53.06228 11.38272 24494 ft 355 kts 333°
2026-05-07 18:38 53.08466 11.36509 24029 ft 357 kts 334°
2026-05-07 18:39 53.10715 11.34796 23514 ft 352 kts 334°
2026-05-07 18:39 53.12918 11.33127 22970 ft 346 kts 334°
2026-05-07 18:39 53.15108 11.31464 22419 ft 345 kts 334°
2026-05-07 18:39 53.17224 11.29620 21885 ft 342 kts 326°
2026-05-07 18:40 53.19165 11.27357 21359 ft 339 kts 322°
2026-05-07 18:40 53.21040 11.24995 20832 ft 337 kts 321°
2026-05-07 18:40 53.22901 11.22595 20167 ft 339 kts 321°
2026-05-07 18:40 53.24743 11.20195 19760 ft 333 kts 321°
2026-05-07 18:41 53.26553 11.17825 19309 ft 329 kts 321°
2026-05-07 18:41 53.28353 11.15459 18890 ft 329 kts 321°
2026-05-07 18:41 53.30141 11.13103 18609 ft 326 kts 321°
2026-05-07 18:41 53.31919 11.10757 18310 ft 324 kts 321°
2026-05-07 18:42 53.33682 11.08427 18082 ft 323 kts 321°
2026-05-07 18:42 53.35444 11.06095 17862 ft 323 kts 321°
2026-05-07 18:42 53.37206 11.03761 17544 ft 321 kts 321°
2026-05-07 18:42 53.38954 11.01442 17246 ft 319 kts 321°
2026-05-07 18:43 53.40687 10.99140 16895 ft 317 kts 321°
2026-05-07 18:43 53.42404 10.96858 16454 ft 314 kts 321°
2026-05-07 18:43 53.44107 10.94589 15971 ft 312 kts 321°
2026-05-07 18:43 53.45652 10.92039 15538 ft 311 kts 307°
2026-05-07 18:44 53.46721 10.88916 15180 ft 308 kts 289°
2026-05-07 18:44 53.47161 10.85412 14789 ft 307 kts 276°
2026-05-07 18:44 53.47343 10.81847 14426 ft 306 kts 274°
2026-05-07 18:44 53.47478 10.78292 14066 ft 305 kts 273°
2026-05-07 18:45 53.47602 10.74784 13693 ft 304 kts 273°
2026-05-07 18:45 53.47723 10.71256 13293 ft 302 kts 273°
2026-05-07 18:45 53.47843 10.67730 12883 ft 301 kts 273°
2026-05-07 18:45 53.47961 10.64235 12476 ft 299 kts 273°
2026-05-07 18:46 53.48077 10.60761 12022 ft 297 kts 273°
2026-05-07 18:46 53.48191 10.57298 11572 ft 296 kts 273°
2026-05-07 18:46 53.48304 10.53853 11125 ft 295 kts 273°
2026-05-07 18:46 53.48415 10.50426 10689 ft 293 kts 273°
2026-05-07 18:47 53.48525 10.47015 10261 ft 292 kts 273°
2026-05-07 18:47 53.48634 10.43616 9795 ft 291 kts 273°
2026-05-07 18:47 53.48740 10.40236 9307 ft 289 kts 273°
2026-05-07 18:47 53.48845 10.36899 8982 ft 280 kts 273°
2026-05-07 18:48 53.48943 10.33721 8695 ft 266 kts 274°
2026-05-07 18:48 53.49037 10.30674 8305 ft 257 kts 273°
2026-05-07 18:48 53.49128 10.27705 7870 ft 254 kts 273°
2026-05-07 18:48 53.49218 10.24749 7580 ft 253 kts 274°
2026-05-07 18:49 53.49307 10.21804 7370 ft 251 kts 274°
2026-05-07 18:49 53.49201 10.18895 7138 ft 250 kts 256°
2026-05-07 18:49 53.48675 10.16129 6903 ft 248 kts 250°
2026-05-07 18:49 53.48064 10.13423 6653 ft 248 kts 249°
2026-05-07 18:50 53.47442 10.10726 6413 ft 247 kts 249°
2026-05-07 18:50 53.46824 10.08040 6162 ft 247 kts 249°
2026-05-07 18:50 53.46210 10.05350 5890 ft 246 kts 249°
2026-05-07 18:50 53.45603 10.02668 5623 ft 245 kts 249°
2026-05-07 18:51 53.45211 9.99883 5343 ft 245 kts 262°
2026-05-07 18:51 53.45006 9.97039 5082 ft 245 kts 264°
2026-05-07 18:51 53.44834 9.94240 4829 ft 244 kts 264°
2026-05-07 18:51 53.44665 9.91409 4563 ft 244 kts 264°
2026-05-07 18:52 53.44501 9.88617 4432 ft 237 kts 264°
2026-05-07 18:52 53.44342 9.85913 4327 ft 229 kts 264°
2026-05-07 18:52 53.44188 9.83285 4190 ft 224 kts 264°
2026-05-07 18:52 53.44034 9.80692 3980 ft 222 kts 264°
2026-05-07 18:53 53.44093 9.78130 3698 ft 221 kts 288°
2026-05-07 18:53 53.44843 9.75912 3474 ft 218 kts 310°
2026-05-07 18:53 53.45824 9.73980 3234 ft 217 kts 313°
2026-05-07 18:53 53.46983 9.72435 3008 ft 211 kts 341°
2026-05-07 18:54 53.48398 9.72220 3005 ft 204 kts 14°
2026-05-07 18:54 53.49738 9.72949 3001 ft 203 kts 29°
2026-05-07 18:54 53.50859 9.74323 2997 ft 195 kts 47°
2026-05-07 18:54 53.51708 9.75950 3011 ft 176 kts 53°
2026-05-07 18:55 53.52448 9.77465 2991 ft 162 kts 52°
2026-05-07 18:55 53.53162 9.78902 2823 ft 159 kts 52°
2026-05-07 18:55 53.53870 9.80318 2583 ft 158 kts 52°
2026-05-07 18:55 53.54572 9.81733 2372 ft 158 kts 52°
2026-05-07 18:56 53.55273 9.83146 2141 ft 156 kts 52°
2026-05-07 18:56 53.55949 9.84509 1922 ft 146 kts 52°
2026-05-07 18:56 53.56568 9.85756 1733 ft 133 kts 53°
2026-05-07 18:56 53.57141 9.86915 1551 ft 127 kts 53°
2026-05-07 18:57 53.57711 9.88067 1388 ft 129 kts 52°
2026-05-07 18:57 53.58285 9.89224 1208 ft 129 kts 52°
2026-05-07 18:57 53.58863 9.90378 1035 ft 128 kts 51°
2026-05-07 18:57 53.59417 9.91498 814 ft 125 kts 51°
2026-05-07 18:58 53.59956 9.92649 691 ft 128 kts 51°
2026-05-07 18:58 53.60550 9.93796 529 ft 132 kts 48°
2026-05-07 18:58 53.61144 9.94988 328 ft 134 kts 51°
2026-05-07 18:58 53.61742 9.96199 152 ft 134 kts 50°
2026-05-07 18:59 53.62315 9.97354 44 ft 119 kts 50°
2026-05-07 18:59 53.62745 9.98224 47 ft 80 kts 51°
2026-05-07 18:59 53.63060 9.98860 50 ft 62 kts 50°
2026-05-07 18:59 53.63258 9.99267 51 ft 25 kts 57°
2026-05-07 19:00 53.63291 9.99513 51 ft 11 kts 95°
2026-05-07 19:00 53.63284 9.99594 50 ft 3 kts 99°
2026-05-07 19:00 53.63282 9.99608 52 ft 0 kts 99°
2026-05-07 19:01 53.63279 9.99640 52 ft 8 kts 99°
2026-05-07 19:01 53.63287 9.99763 47 ft 13 kts 66°
2026-05-07 19:01 53.63347 9.99898 50 ft 16 kts 50°
2026-05-07 19:01 53.63418 10.00043 49 ft 13 kts 51°
2026-05-07 19:02 53.63414 10.00165 47 ft 10 kts 135°
2026-05-07 19:02 53.63363 10.00216 47 ft 8 kts 131°
2026-05-07 19:02 53.63355 10.00299 52 ft 8 kts 86°
2026-05-07 19:02 53.63357 10.00358 47 ft 2 kts 86°
2026-05-07 19:03 53.63357 10.00359 47 ft 0 kts 86°